CDT,Max TemperatureF,Mean TemperatureF,Min TemperatureF,Max Dew PointF,MeanDew PointF,Min DewpointF,Max Humidity, Mean Humidity, Min Humidity, Max Sea Level PressureIn, Mean Sea Level PressureIn, Min Sea Level PressureIn, Max VisibilityMiles, Mean VisibilityMiles, Min VisibilityMiles, Max Wind SpeedMPH, Mean Wind SpeedMPH, Max Gust SpeedMPH,PrecipitationIn, CloudCover, Events, WindDirDegrees
2012-10-1,79,64,48,46,38,25,78,45,16,29.94,29.90,29.87,10,10,7,21,5,28,0.00,1,,342
2012-10-2,77,60,42,44,36,32,70,46,22,29.97,29.92,29.86,10,9,4,10,5,,0.00,0,,325
2012-10-3,82,61,40,44,32,19,84,45,10,29.94,29.90,29.83,10,9,5,17,4,23,0.00,0,,173
2012-10-4,63,54,44,44,35,28,84,52,29,30.28,30.13,29.92,10,10,7,22,11,29,0.01,2,Rain,305
2012-10-5,53,42,30,32,25,16,86,57,23,30.29,30.25,30.20,10,10,10,16,7,25,0.00,0,,293
2012-10-6,46,36,26,26,24,20,78,59,42,30.31,30.28,30.24,10,10,10,18,8,25,0.00,4,,317
2012-10-7,58,39,20,28,20,14,90,55,18,30.28,30.17,30.03,10,10,5,21,6,25,0.00,0,,237
2012-10-8,69,50,32,33,29,25,80,45,19,30.02,29.89,29.79,10,10,10,29,13,34,0.00,1,,197
2012-10-9,57,46,33,43,34,26,76,56,37,30.09,29.92,29.79,10,10,2,24,9,29,0.00,4,Rain,286
2012-10-10,61,44,28,30,23,15,86,52,17,30.22,30.12,30.04,10,10,4,18,10,24,0.00,0,,249
2012-10-11,64,53,42,33,29,22,66,44,26,30.35,30.12,30.00,10,10,10,17,11,26,0.00,1,,281
2012-10-12,62,48,33,46,21,8,82,42,12,30.40,30.30,30.05,10,10,10,21,9,26,0.01,2,Rain,94
2012-10-13,77,65,53,65,57,46,91,80,57,30.04,29.80,29.64,10,8,2,21,11,24,0.50,8,Rain,167
2012-10-14,62,52,43,59,48,39,90,76,47,29.95,29.76,29.58,10,8,3,28,13,34,0.34,5,Rain,315
2012-10-15,71,54,36,46,40,34,89,64,29,30.00,29.92,29.81,10,10,10,13,7,16,0.00,0,,190
2012-10-16,77,62,47,50,47,43,84,64,32,29.80,29.54,29.42,10,10,10,14,9,20,0.00,0,,190
2012-10-17,66,56,46,54,44,32,84,61,41,29.52,29.42,29.32,10,10,7,30,13,41,0.04,5,Rain,261
2012-10-18,50,47,44,45,39,29,88,75,46,29.46,29.40,29.35,10,7,2,36,18,47,0.17,8,Rain,276
2012-10-19,50,47,44,44,43,40,92,86,81,29.79,29.65,29.46,10,8,1,18,15,25,0.01,8,Rain,306
2012-10-20,61,53,45,45,43,42,89,77,51,29.85,29.80,29.75,10,10,10,10,5,,0.00,5,,169
2012-10-21,81,62,43,61,51,41,91,72,40,29.82,29.79,29.75,10,10,7,16,9,,0.00,2,,134
2012-10-22,77,70,63,66,63,60,90,80,62,29.83,29.79,29.72,10,7,2,22,6,37,0.23,5,Rain,120
2012-10-23,77,68,58,66,62,56,91,81,64,29.79,29.74,29.68,10,7,0,18,9,23,0.00,5,Fog,159
2012-10-24,78,66,54,66,62,51,90,82,59,29.77,29.73,29.68,10,6,1,18,8,22,0.04,8,Rain,182
2012-10-25,54,46,38,51,38,28,89,80,66,30.29,29.93,29.60,10,8,2,28,17,39,0.27,8,Rain,328
2012-10-26,43,38,32,31,29,27,91,68,56,30.46,30.40,30.29,10,10,10,16,9,20,0.00,7,,315
2012-10-27,45,39,33,31,27,21,82,61,39,30.40,30.34,30.28,10,10,10,7,2,,0.00,4,,318
2012-10-28,50,41,32,30,26,21,84,61,31,30.35,30.30,30.25,10,10,7,8,3,,0.00,2,,135
2012-10-29,54,44,33,31,29,25,78,58,33,30.30,30.24,30.16,10,10,3,18,8,23,0.00,3,,139
2012-10-30,54,42,31,31,28,22,85,59,29,30.17,30.09,30.03,10,10,10,10,4,10,0.00,3,,30
2012-10-31,57,44,30,32,26,15,90,58,22,30.07,30.02,29.97,10,10,5,9,5,,0.00,1,,313